When you browse on this site, cookies collect data to enhance your experience and personalize the content and advertising you see.
Visit our Privacy Policy to learn more. By continuing to use the site, you agree to this use of cookies and data.
  • In Netherlands
  • List of Countries
  • For 7 days
  • Water Temperature
  • Satellite Maps
  • Weather Map
  • Weather Widgets
  • user-avatar
    Login

    Hourly Weather Perth

    Today, 17 January, Thursday

    Time Temperature Precipitation Wind Pressure Humidity
    00:00 +19°C° 0 mm 4 mps 757 mmHg 77%
    01:00 +18°C° 0 mm 4 mps 757 mmHg 78%
    02:00 +18°C° 0 mm 3 mps 757 mmHg 82%
    03:00 +17°C° 0 mm 3 mps 757 mmHg 82%
    04:00 +17°C° 0 mm 3 mps 757 mmHg 81%
    05:00 +17°C° 0 mm 3 mps 757 mmHg 81%
    06:00 +18°C° 0 mm 3 mps 758 mmHg 74%
    07:00 +20°C° 0 mm 3 mps 758 mmHg 67%
    08:00 +21°C° 0 mm 3 mps 758 mmHg 60%
    09:00 +23°C° 0 mm 4 mps 758 mmHg 55%
    10:00 +26°C° 0 mm 4 mps 758 mmHg 49%
    11:00 +28°C° 0 mm 4 mps 758 mmHg 44%
    12:00 +28°C° 0 mm 5 mps 758 mmHg 44%
    13:00 +28°C° 0 mm 6 mps 757 mmHg 45%
    14:00 +28°C° 0 mm 6 mps 757 mmHg 45%
    15:00 +28°C° 0 mm 6 mps 757 mmHg 47%
    16:00 +27°C° 0 mm 6 mps 757 mmHg 49%
    17:00 +26°C° 0 mm 6 mps 757 mmHg 52%
    18:00 +24°C° 0 mm 6 mps 757 mmHg 58%
    19:00 +22°C° 0 mm 6 mps 758 mmHg 64%
    20:00 +21°C° 0 mm 5 mps 758 mmHg 70%
    21:00 +21°C° 0 mm 5 mps 759 mmHg 71%
    22:00 +20°C° 0 mm 5 mps 759 mmHg 72%
    23:00 +20°C° 0 mm 4 mps 760 mmHg 73%

    Tomorrow, 18 January, Friday

    Time Temperature Precipitation Wind Pressure Humidity
    00:00 +20°C° 0 mm 4 mps 760 mmHg 70%
    01:00 +20°C° 0 mm 4 mps 760 mmHg 66%
    02:00 +20°C° 0 mm 4 mps 760 mmHg 63%
    03:00 +20°C° 0 mm 4 mps 760 mmHg 64%
    04:00 +19°C° 0 mm 4 mps 760 mmHg 65%
    05:00 +19°C° 0 mm 3 mps 760 mmHg 67%
    06:00 +20°C° 0 mm 4 mps 761 mmHg 64%
    07:00 +21°C° 0 mm 4 mps 761 mmHg 61%
    08:00 +22°C° 0 mm 4 mps 761 mmHg 58%
    09:00 +26°C° 0 mm 3 mps 761 mmHg 48%
    10:00 +28°C° 0 mm 3 mps 761 mmHg 39%
    11:00 +30°C° 0 mm 3 mps 761 mmHg 30%
    12:00 +33°C° 0 mm 3 mps 761 mmHg 27%
    13:00 +34°C° 0 mm 3 mps 760 mmHg 25%
    14:00 +35°C° 0 mm 4 mps 760 mmHg 23%
    15:00 +34°C° 0 mm 4 mps 759 mmHg 24%
    16:00 +34°C° 0 mm 4 mps 759 mmHg 25%
    17:00 +34°C° 0 mm 5 mps 759 mmHg 26%
    18:00 +30°C° 0 mm 4 mps 759 mmHg 31%
    19:00 +28°C° 0 mm 4 mps 759 mmHg 36%
    20:00 +26°C° 0 mm 3 mps 760 mmHg 41%
    21:00 +25°C° 0 mm 3 mps 760 mmHg 39%
    22:00 +25°C° 0 mm 3 mps 760 mmHg 37%
    23:00 +24°C° 0 mm 2 mps 761 mmHg 36%

    Day after tomorrow, 19 January, Saturday

    Time Temperature Precipitation Wind Pressure Humidity
    00:00 +25°C° 0 mm 3 mps 760 mmHg 34%
    01:00 +25°C° 0 mm 4 mps 760 mmHg 33%
    02:00 +25°C° 0 mm 5 mps 760 mmHg 31%
    03:00 +25°C° 0 mm 5 mps 760 mmHg 36%
    04:00 +25°C° 0 mm 5 mps 760 mmHg 40%
    05:00 +23°C° 0 mm 6 mps 760 mmHg 45%
    06:00 +24°C° 0 mm 6 mps 760 mmHg 43%
    07:00 +26°C° 0 mm 5 mps 760 mmHg 40%
    08:00 +28°C° 0 mm 5 mps 760 mmHg 38%
    09:00 +32°C° 0 mm 5 mps 760 mmHg 34%
    10:00 +35°C° 0 mm 4 mps 760 mmHg 30%
    11:00 +37°C° 0 mm 3 mps 760 mmHg 26%
    12:00 +39°C° 0 mm 3 mps 759 mmHg 24%
    13:00 +40°C° 0 mm 3 mps 758 mmHg 21%
    14:00 +43°C° 0 mm 3 mps 758 mmHg 19%
    15:00 +42°C° 0 mm 4 mps 757 mmHg 21%
    16:00 +40°C° 0 mm 5 mps 757 mmHg 23%
    17:00 +39°C° 0 mm 6 mps 757 mmHg 25%
    18:00 +36°C° 0 mm 5 mps 757 mmHg 27%
    19:00 +34°C° 0 mm 5 mps 757 mmHg 29%
    20:00 +32°C° 0 mm 4 mps 757 mmHg 31%
    21:00 +30°C° 0 mm 4 mps 758 mmHg 30%
    22:00 +29°C° 0 mm 3 mps 758 mmHg 30%
    23:00 +29°C° 0 mm 3 mps 758 mmHg 29%

    20 January, Sunday

    Time Temperature Precipitation Wind Pressure Humidity
    00:00 +28°C° 0 mm 3 mps 758 mmHg 29%
    01:00 +28°C° 0 mm 3 mps 758 mmHg 29%
    02:00 +27°C° 0 mm 2 mps 757 mmHg 30%
    03:00 +27°C° 0 mm 2 mps 757 mmHg 31%
    04:00 +27°C° 0 mm 2 mps 757 mmHg 32%
    05:00 +27°C° 0 mm 2 mps 757 mmHg 33%
    06:00 +30°C° 0 mm 3 mps 757 mmHg 30%
    07:00 +33°C° 0 mm 3 mps 757 mmHg 27%
    08:00 +36°C° 0 mm 4 mps 758 mmHg 25%
    09:00 +38°C° 0 mm 4 mps 758 mmHg 22%
    10:00 +41°C° 0 mm 4 mps 757 mmHg 20%
    11:00 +43°C° 0 mm 4 mps 757 mmHg 18%
    12:00 +43°C° 0 mm 4 mps 757 mmHg 18%
    13:00 +42°C° 0 mm 5 mps 756 mmHg 19%
    14:00 +42°C° 0 mm 5 mps 756 mmHg 20%
    15:00 +41°C° 0 mm 5 mps 755 mmHg 22%
    16:00 +40°C° 0 mm 5 mps 755 mmHg 23%
    17:00 +39°C° 0 mm 5 mps 755 mmHg 24%
    18:00 +36°C° 0 mm 4 mps 755 mmHg 28%
    19:00 +34°C° 0 mm 4 mps 755 mmHg 31%
    20:00 +31°C° 0 mm 3 mps 756 mmHg 34%
    21:00 +30°C° 0 mm 3 mps 756 mmHg 35%
    22:00 +29°C° 0 mm 3 mps 756 mmHg 36%
    23:00 +28°C° 0 mm 2 mps 756 mmHg 37%

    21 January, Monday

    Time Temperature Precipitation Wind Pressure Humidity
    00:00 +28°C° 0 mm 2 mps 756 mmHg 37%
    01:00 +27°C° 0 mm 2 mps 755 mmHg 38%
    02:00 +27°C° 0 mm 1 mps 755 mmHg 38%
    03:00 +26°C° 0 mm 1 mps 755 mmHg 40%
    04:00 +26°C° 0 mm 1 mps 755 mmHg 43%
    05:00 +25°C° 0 mm 1 mps 755 mmHg 45%
    06:00 +27°C° 0 mm 2 mps 755 mmHg 44%
    07:00 +28°C° 0 mm 2 mps 756 mmHg 43%
    08:00 +30°C° 0 mm 3 mps 756 mmHg 42%
    09:00 +32°C° 0 mm 4 mps 756 mmHg 38%
    10:00 +34°C° 0 mm 4 mps 756 mmHg 35%
    11:00 +36°C° 0 mm 5 mps 755 mmHg 32%
    12:00 +35°C° 0 mm 6 mps 755 mmHg 33%
    13:00 +34°C° 0 mm 6 mps 754 mmHg 34%
    14:00 +33°C° 0 mm 7 mps 754 mmHg 35%
    15:00 +32°C° 0 mm 7 mps 754 mmHg 39%
    16:00 +30°C° 0 mm 7 mps 754 mmHg 43%
    17:00 +29°C° 0 mm 7 mps 754 mmHg 47%
    18:00 +28°C° 0.1 mm 7 mps 754 mmHg 50%
    19:00 +27°C° 0.1 mm 7 mps 755 mmHg 52%
    20:00 +27°C° 0.1 mm 8 mps 756 mmHg 55%
    21:00 +26°C° 0 mm 7 mps 756 mmHg 55%
    22:00 +26°C° 0 mm 7 mps 757 mmHg 56%
    23:00 +26°C° 0 mm 6 mps 757 mmHg 56%

    22 January, Tuesday

    Time Temperature Precipitation Wind Pressure Humidity
    00:00 +24°C° 0 mm 6 mps 757 mmHg 60%
    01:00 +22°C° 0 mm 6 mps 757 mmHg 64%
    02:00 +21°C° 0 mm 5 mps 757 mmHg 68%
    03:00 +21°C° 0 mm 5 mps 758 mmHg 68%
    04:00 +20°C° 0 mm 5 mps 758 mmHg 67%
    05:00 +19°C° 0 mm 5 mps 758 mmHg 67%
    06:00 +20°C° 0 mm 5 mps 759 mmHg 64%
    07:00 +20°C° 0 mm 5 mps 760 mmHg 60%
    08:00 +21°C° 0 mm 6 mps 760 mmHg 57%
    09:00 +22°C° 0 mm 6 mps 760 mmHg 51%
    10:00 +25°C° 0 mm 5 mps 760 mmHg 45%
    11:00 +26°C° 0 mm 5 mps 760 mmHg 39%
    12:00 +27°C° 0 mm 5 mps 760 mmHg 34%
    13:00 +28°C° 0 mm 5 mps 759 mmHg 30%
    14:00 +30°C° 0 mm 5 mps 759 mmHg 25%
    15:00 +29°C° 0 mm 5 mps 759 mmHg 25%
    16:00 +29°C° 0 mm 6 mps 759 mmHg 25%
    17:00 +29°C° 0 mm 6 mps 759 mmHg 25%
    18:00 +28°C° 0 mm 6 mps 759 mmHg 27%
    19:00 +26°C° 0 mm 5 mps 760 mmHg 29%
    20:00 +25°C° 0 mm 5 mps 760 mmHg 31%
    21:00 +22°C° 0 mm 5 mps 761 mmHg 34%
    22:00 +21°C° 0 mm 6 mps 761 mmHg 38%
    23:00 +20°C° 0 mm 6 mps 762 mmHg 42%
    Show more